Flag for United Kingdom Weather past 2 weeks in Wakefield, England, United Kingdom

Now
32 °F

Clear.


Feels Like: 24 °F
Forecast: N/A
Wind: 9 mph from Northwest

Location: Leeds And Bradford

Current Time: Dec 28, 2014 at 11:43:52 PM

Latest Report: Dec 28, 2014 at 11:20 PM


Visibility: 10 mi

Pressure: 30.60 "Hg

Humidity: 93%

Dew point: 30 °F

Location of WakefieldLocation

Historic Weather in Wakefield — Graph

°F

Wakefield temperature yesterday

Maximum temperature yesterday: 36 °F (at 4:20 AM)
Minimum temperature yesterday: 32 °F (at 12:20 AM)
Average temperature yesterday: 33 °F

Past Weeks' High & Low Weather Summary

 TemperatureHumidityPressure
High54 °F (Dec 18, 1:20 PM)100% (Dec 14, 4:50 PM)30.60 "Hg (Dec 14, 4:50 PM)
Low32 °F (Dec 26, 1:50 AM)71% (Dec 19, 11:50 AM)29.45 "Hg (Dec 17, 1:50 AM)
Average42 °F90%29.87 "Hg
* Reported Dec 13 10:20 PM — Dec 28 10:20 PM, Wakefield, Weather by CustomWeather, © 2014

Note: Actual official high and low records may vary slightly from our data, if they occured in-between our weather recording intervals... More about our weather records

Advertising

Wakefield weather history for previous 24 hours

 ConditionsComfort  
Time TempWeatherWind HumidityBarometerVisibility
10:20 PM
Dec 28
34 °FPassing clouds.15 mph93%30.60 "HgN/A
9:20 PM34 °FPassing clouds.12 mph93%30.60 "HgN/A
8:50 PM34 °FPassing clouds.15 mph93%30.60 "HgN/A
8:20 PM34 °FPassing clouds.16 mph93%30.57 "HgN/A
7:50 PM34 °FPassing clouds.13 mph93%30.60 "HgN/A
7:20 PM34 °FPassing clouds.15 mph93%30.57 "HgN/A
6:50 PM34 °FPassing clouds.15 mph93%30.57 "HgN/A
6:20 PM34 °FPassing clouds.16 mph93%30.57 "HgN/A
5:50 PM34 °FPassing clouds.15 mph93%30.54 "HgN/A
5:20 PM34 °FPassing clouds.13 mph93%30.54 "HgN/A
4:50 PM34 °FClear.9 mph93%30.54 "Hg10 mi
4:20 PM34 °FClear.12 mph93%30.54 "Hg10 mi
3:50 PM34 °FSunny.12 mph93%30.51 "Hg10 mi
3:20 PM36 °FSunny.13 mph87%30.51 "Hg10 mi
2:50 PM36 °FPassing clouds.7 mph87%30.51 "HgN/A
2:20 PM36 °FSunny.9 mph81%30.51 "Hg10 mi
1:50 PM36 °FSunny.10 mph87%30.51 "Hg10 mi
1:20 PM36 °FSunny.7 mph87%30.48 "Hg10 mi
12:50 PM36 °FSunny.8 mph87%30.48 "Hg10 mi
12:20 PM36 °FSunny.7 mph87%30.48 "Hg10 mi
11:50 AM34 °FSunny.7 mph87%30.48 "Hg10 mi
11:20 AM34 °FPassing clouds.6 mph93%30.48 "HgN/A
10:50 AM34 °FSunny.6 mph93%30.48 "Hg10 mi
10:20 AM34 °FSunny.6 mph87%30.45 "Hg10 mi
9:50 AM36 °FSunny.5 mph87%30.45 "Hg10 mi
9:20 AM36 °FPassing clouds.5 mph87%30.42 "HgN/A
8:50 AM34 °FSunny.6 mph93%30.42 "Hg10 mi
8:20 AM34 °FClear.7 mph93%30.39 "Hg10 mi
7:50 AM34 °FClear.7 mph93%30.39 "Hg10 mi
7:20 AM34 °FPassing clouds.7 mph93%30.36 "HgN/A
6:50 AM34 °FPassing clouds.7 mph93%30.33 "HgN/A
6:20 AM34 °FPassing clouds.8 mph93%30.33 "HgN/A
5:50 AM34 °FPassing clouds.7 mph93%30.30 "HgN/A
5:20 AM34 °FPassing clouds.6 mph93%30.30 "HgN/A
4:50 AM34 °FPassing clouds.6 mph93%30.27 "HgN/A
4:20 AM34 °FPassing clouds.6 mph93%30.24 "HgN/A
3:20 AM34 °FPassing clouds.6 mph93%30.21 "HgN/A
2:50 AM34 °FPassing clouds.7 mph100%30.21 "HgN/A
2:20 AM34 °FPassing clouds.9 mph100%30.18 "HgN/A
1:50 AM34 °FPassing clouds.6 mph100%30.15 "HgN/A
1:20 AM34 °FPassing clouds.9 mph100%30.15 "HgN/A
12:50 AM32 °FPassing clouds.8 mph100%30.12 "HgN/A
11:50 PM
Dec 27
32 °FPassing clouds.8 mph100%30.09 "HgN/A
11:20 PM34 °FPassing clouds.9 mph93%30.07 "HgN/A
Weather by CustomWeather, © 2014

See weather overviewHow to use our weather pages